Location: La Pernelle
(49.6188°N, 1.2999°W)
Time: 09:24:25
(UTC+00:00)

Okean 1 Rocket - Pass Details

Date: 12 June 2021
Orbit: 607 x 633 km, 82.5° (Epoch: 03 August)

Event Time Altitude Azimuth Distance (km) Brightness Sun altitude
Rises 20:48:56 0° 353° (N) 2,882 7.5 -5.2°
Reaches altitude 10° 20:51:12 10° 357° (N) 1,974 6.5 -5.4°
Maximum altitude 20:55:31 59° 77° (ENE) 711 3.2 -5.9°
Drops below altitude 10° 20:59:49 10° 158° (SSE) 1,969 5.0 -6.4°
Enters shadow 21:00:36 - 159° (SSE) 2,283 5.4 -6.4°
